This is the latest recevied weather packets stored in our database for station/object KC4JES. If no packets are shown the sender has not sent any weather packets the latest 10 day(s).
| Time | Temp. | Humidity | Pressure | Rain* | Wind** | Luminosity | Snow |
|---|---|---|---|---|---|---|---|
| 1778165693 | 30° C | 58% | 1015.2 hPa | 0 mm | - | 89 W/m² | - |
| 1778165390 | 30° C | 57% | 1015 hPa | 0 mm | - | 81 W/m² | - |
| 1778165087 | 30° C | 59% | 1014.8 hPa | 0 mm | - | 93 W/m² | - |
| 1778164784 | 29.44° C | 59% | 1015.1 hPa | 0 mm | - | 101 W/m² | - |
| 1778164482 | 29.44° C | 61% | 1015.3 hPa | 0 mm | - | 103 W/m² | - |
| 1778164178 | 29.44° C | 63% | 1015.2 hPa | 0 mm | - | 145 W/m² | - |
| 1778163874 | 28.89° C | 61% | 1015.4 hPa | 0 mm | - | 135 W/m² | - |
| 1778163571 | 28.89° C | 63% | 1015.3 hPa | 0 mm | - | 114 W/m² | - |
| 1778163267 | 28.33° C | 64% | 1015.4 hPa | 0 mm | - | 100 W/m² | - |
| 1778162964 | 28.33° C | 64% | 1015.4 hPa | 0 mm | - | 104 W/m² | - |
| 1778162660 | 27.78° C | 65% | 1015.4 hPa | 0 mm | - | 90 W/m² | - |
| 1778162359 | 27.78° C | 64% | 1015.7 hPa | 0 mm | - | 88 W/m² | - |
| 1778162055 | 27.78° C | 66% | 1015.7 hPa | 0 mm | - | 66 W/m² | - |
| 1778161752 | 27.22° C | 66% | 1015.4 hPa | 0 mm | - | 79 W/m² | - |
| 1778161448 | 27.22° C | 67% | 1015.5 hPa | 0 mm | - | 70 W/m² | - |
| 1778161145 | 26.67° C | 69% | 1015.4 hPa | 0 mm | - | 68 W/m² | - |
| 1778160840 | 26.67° C | 70% | 1015.6 hPa | 0 mm | - | 67 W/m² | - |
| 1778160540 | 26.67° C | 68% | 1015.5 hPa | 0 mm | - | 66 W/m² | - |
| 1778160235 | 26.11° C | 69% | 1015.4 hPa | 0 mm | - | 66 W/m² | - |
| 1778159933 | 26.11° C | 70% | 1015.3 hPa | 0 mm | - | 53 W/m² | - |
| 1778159629 | 25.56° C | 71% | 1015.4 hPa | 0 mm | - | 64 W/m² | - |
| 1778159326 | 25° C | 72% | 1015.4 hPa | 0 mm | - | 63 W/m² | - |
| 1778159023 | 25° C | 72% | 1015.3 hPa | 0 mm | - | 61 W/m² | - |
| 1778158722 | 25° C | 72% | 1015.4 hPa | 0 mm | - | 57 W/m² | - |
| 1778158419 | 24.44° C | 72% | 1015.2 hPa | 0 mm | - | 57 W/m² | - |
* Rain latest hour (hover to see other rain measurements)
** Current wind speed in m/s (hover to see current wind gust speed)